Weather History for Poughkeepsie, NY

Change the Weather History Date:

Saturday, April 12, 2014

  Actual Average Record
Temperature  
Mean Temperature 58 °F 48 °F  
Max Temperature 72 °F 59 °F 88 °F (1977)
Min Temperature 43 °F 36 °F 21 °F (1952)
Degree Days  
Heating Degree Days 7 18  
Month to date heating degree days 203 238  
Since 1 July heating degree days 5933 5683  
Cooling Degree Days 0 0  
Month to date cooling degree days 0 0  
Year to date cooling degree days 0 0  
Growing Degree Days 8 (Base 50)    
Moisture  
Dew Point 40 °F    
Average Humidity 71    
Maximum Humidity 100    
Minimum Humidity 23    
Precipitation  
Precipitation 0.00 in 0.14 in 1.08 in (2007)
Month to date precipitation 0.38 1.55  
Year to date precipitation 7.41 10.86  
Sea Level Pressure  
Sea Level Pressure 30.12 in    
Wind  
Wind Speed 2 mph (SSW)    
Max Wind Speed 15 mph    
Max Gust Speed 21 mph    
Visibility 6 miles    
Events Fog    
T = Trace of Precipitation, MM = Missing Value Source: NWS Daily Summary

Daily Weather History Graph

Daily Weather History Graph

Search for Another Location

Airport:

Trip Planner

Search our weather history database for the weather conditions in past years. The results will help you decide how hot, cold, wet, or windy it might be!

Date:

Astronomy

Apr. 12, 2014 Rise Set
Actual Time 6:20 AM EDT 7:32 PM EDT
Civil Twilight 5:51 AM EDT 8:01 PM EDT
Nautical Twilight 5:17 AM EDT 8:35 PM EDT
Astronomical Twilight 4:41 AM EDT 9:12 PM EDT
Moon 5:07 PM EDT (4/12) 4:47 AM EDT (4/12)
Length of Visible Light 14h 09m
Length of Day
13h 12m
Waxing Gibbous, 93% of the Moon is Illuminated
Apr 12
Waxing Gibbous
Apr 15
Full
Apr 22
Last Quarter
Apr 29
New
May 6
First Quarter

Hourly Weather History & Observations

Time (EDT) Temp. Windchill Dew Point Humidity Pressure Visibility Wind Dir Wind Speed Gust Speed Precip Events Conditions
12:53 AM 48.0 °F - 46.0 °F 93% 30.02 in 7.0 mi Calm Calm - N/A   Overcast
1:53 AM 48.0 °F - 46.0 °F 93% 30.04 in 6.0 mi Calm Calm - N/A   Overcast
2:29 AM 48.0 °F - 46.0 °F 93% 30.05 in 5.0 mi Calm Calm - N/A   Overcast
2:45 AM 48.0 °F - 46.0 °F 93% 30.05 in 6.0 mi Calm Calm - N/A   Overcast
2:53 AM 48.0 °F - 46.0 °F 93% 30.05 in 5.0 mi Calm Calm - N/A   Overcast
3:14 AM 48.0 °F - 46.0 °F 93% 30.05 in 2.5 mi Calm Calm - N/A   Mostly Cloudy
3:25 AM 46.9 °F - 45.0 °F 93% 30.06 in 1.8 mi Calm Calm - N/A   Mostly Cloudy
3:32 AM 46.0 °F - 45.0 °F 96% 30.07 in 0.2 mi Calm Calm - N/A Fog Fog
3:47 AM 44.6 °F - 42.8 °F 93% 30.07 in 0.2 mi Calm Calm - N/A Fog Fog
3:53 AM 44.1 °F - 43.0 °F 96% 30.06 in 0.2 mi Calm Calm - N/A Fog Fog
4:24 AM 44.1 °F - 42.1 °F 93% 30.09 in 0.2 mi Calm Calm - N/A Fog Fog
4:53 AM 44.1 °F - 43.0 °F 96% 30.09 in 0.2 mi Calm Calm - N/A Fog Fog
5:21 AM 44.1 °F - 43.0 °F 96% 30.10 in 0.5 mi Calm Calm - N/A Fog Fog
5:29 AM 44.1 °F - 44.1 °F 100% 30.11 in 0.2 mi Calm Calm - N/A Fog Fog
5:53 AM 44.1 °F - 43.0 °F 96% 30.12 in 0.2 mi Calm Calm - N/A Fog Fog
6:53 AM 45.0 °F - 44.1 °F 97% 30.14 in 0.2 mi Calm Calm - N/A Fog Fog
7:53 AM 45.0 °F 42.6 °F 44.1 °F 97% 30.20 in 0.2 mi SW 4.6 mph - N/A Fog Fog
8:10 AM 45.0 °F 43.5 °F 44.1 °F 97% 30.20 in 1.2 mi South 3.5 mph - N/A   Overcast
8:13 AM 45.0 °F 42.6 °F 44.1 °F 97% 30.20 in 4.0 mi South 4.6 mph - N/A   Overcast
8:24 AM 45.0 °F - 44.1 °F 97% 30.19 in 2.0 mi Calm Calm - N/A   Mostly Cloudy
8:34 AM 45.0 °F - 43.0 °F 93% 30.19 in 10.0 mi Calm Calm - N/A   Scattered Clouds
8:53 AM 46.0 °F - 44.1 °F 93% 30.19 in 10.0 mi Calm Calm - N/A   Mostly Cloudy
9:53 AM 52.0 °F - 45.0 °F 77% 30.21 in 10.0 mi West 4.6 mph - N/A   Clear
10:53 AM 57.0 °F - 44.1 °F 62% 30.22 in 10.0 mi SSW 4.6 mph - N/A   Clear
11:53 AM 62.1 °F - 41.0 °F 46% 30.20 in 10.0 mi Variable 6.9 mph - N/A   Clear
12:53 PM 66.0 °F - 35.1 °F 32% 30.17 in 10.0 mi Variable 6.9 mph - N/A   Clear
1:53 PM 68.0 °F - 32.0 °F 26% 30.14 in 10.0 mi WSW 15.0 mph 20.7 mph N/A   Clear
2:53 PM 70.0 °F - 30.0 °F 23% 30.12 in 10.0 mi WSW 11.5 mph - N/A   Clear
3:53 PM 70.0 °F - 30.9 °F 24% 30.11 in 10.0 mi SW 5.8 mph 18.4 mph N/A   Clear
4:53 PM 71.1 °F - 30.9 °F 23% 30.11 in 10.0 mi SW 12.7 mph - N/A   Clear
5:53 PM 71.1 °F - 33.1 °F 25% 30.12 in 10.0 mi WSW 9.2 mph - N/A   Clear
6:53 PM 69.1 °F - 30.9 °F 24% 30.13 in 10.0 mi WSW 11.5 mph - N/A   Clear
7:53 PM 64.0 °F - 33.1 °F 31% 30.13 in 10.0 mi SSW 3.5 mph - N/A   Clear
8:53 PM 63.0 °F - 34.0 °F 34% 30.15 in 10.0 mi South 8.1 mph - N/A   Clear
9:53 PM 61.0 °F - 34.0 °F 36% 30.16 in 10.0 mi South 4.6 mph - N/A   Clear
10:53 PM 59.0 °F - 34.0 °F 39% 30.16 in 10.0 mi SSE 4.6 mph - N/A   Clear
11:53 PM 57.0 °F - 34.0 °F 42% 30.15 in 10.0 mi SSE 5.8 mph - N/A   Clear